This is the latest recevied weather packets stored in our database for station/object N3WGC-14. If no packets are shown the sender has not sent any weather packets the latest 10 day(s).
| Time | Temp. | Humidity | Pressure | Rain* | Wind** | Luminosity | Snow |
|---|---|---|---|---|---|---|---|
| 1777756345 | 14.44° C | 53% | 1011.4 hPa | 0 mm | - | - | - |
| 1777756045 | 14.44° C | 54% | 1011.4 hPa | 0 mm | - | - | - |
| 1777755745 | 14.44° C | 52% | 1011.4 hPa | 0 mm | - | - | - |
| 1777755445 | 14.44° C | 52% | 1011.5 hPa | 0 mm | - | - | - |
| 1777755145 | 14.44° C | 54% | 1011.4 hPa | 0 mm | - | - | - |
| 1777754845 | 14.44° C | 52% | 1011.3 hPa | 0 mm | - | - | - |
| 1777754544 | 14.44° C | 50% | 1011.4 hPa | 0 mm | - | - | - |
| 1777754244 | 14.44° C | 50% | 1011.5 hPa | 0 mm | - | - | - |
| 1777753944 | 14.44° C | 54% | 1011.4 hPa | 0 mm | - | - | - |
| 1777753644 | 13.89° C | 55% | 1011.4 hPa | 0 mm | - | - | - |
| 1777753344 | 14.44° C | 56% | 1011.4 hPa | 0 mm | - | - | - |
| 1777753044 | 14.44° C | 55% | 1011.4 hPa | 0 mm | - | - | - |
| 1777752744 | 14.44° C | 54% | 1011.4 hPa | 0 mm | - | - | - |
| 1777752443 | 14.44° C | 53% | 1011.5 hPa | 0 mm | - | - | - |
| 1777752143 | 15° C | 51% | 1011.5 hPa | 0 mm | - | - | - |
| 1777751843 | 14.44° C | 49% | 1011.5 hPa | 0 mm | - | - | - |
| 1777751543 | 15° C | 51% | 1011.5 hPa | 0 mm | - | - | - |
| 1777751243 | 15° C | 50% | 1011.7 hPa | 0 mm | - | - | - |
| 1777750943 | 15° C | 50% | 1011.9 hPa | 0 mm | - | - | - |
| 1777750643 | 14.44° C | 50% | 1012 hPa | 0 mm | - | - | - |
| 1777750342 | 14.44° C | 52% | 1012.2 hPa | 0 mm | - | - | - |
| 1777750042 | 14.44° C | 52% | 1012.1 hPa | 0 mm | - | - | - |
| 1777749742 | 15° C | 51% | 1012.2 hPa | 0 mm | - | - | - |
| 1777749442 | 15.56° C | 47% | 1012.3 hPa | 0 mm | - | - | - |
| 1777749142 | 15.56° C | 47% | 1012.3 hPa | 0 mm | - | - | - |
* Rain latest hour (hover to see other rain measurements)
** Current wind speed in m/s (hover to see current wind gust speed)